Theta_e
305 305 305 305 305 304 299 292 279 293 299 286 286 285 288 291 292 296 294 294 292 290 291 287 289 288 292 300 299 293 296 292 288 292 298 301 298 293 293 284 283 285 285 285
305 305 305 305 304 304 297 287 288 296 297 280 284 288 287 291 291 291 293 290 293 293 289 285 289 291 299 300 297 294 297 291 285 289 294 299 295 296 293 290 290 286 283 286
304 305 305 304 305 304 298 289 283 287 288 287 285 284 285 286 292 291 292 293 295 291 289 291 289 290 296 298 298 302 298 291 290 284 288 293 293 295 295 291 286 287 286 294
304 304 304 304 304 304 293 289 285 286 279 282 284 285 285 286 285 290 292 292 290 287 287 287 287 292 294 297 300 299 296 289 292 295 296 297 296 295 296 291 291 289 292 294
303 303 304 304 304 303 290 285 285 288 285 285 284 285 285 285 287 288 289 289 291 291 288 288 286 291 292 293 298 296 297 289 294 292 297 297 295 297 297 295 294 295 296 293
303 304 304 304 305 301 293 294 295 289 284 284 283 283 285 286 288 290 291 292 291 289 291 295 295 295 294 294 294 295 293 289 292 289 295 294 289 295 297 298 298 297 292 296
303 303 304 304 304 303 296 295 293 287 281 284 284 285 287 286 288 287 291 294 292 294 298 298 296 295 295 296 297 299 290 288 291 290 292 283 295 301 302 299 299 300 299 298
303 303 303 304 305 305 293 295 293 288 282 286 286 286 286 288 290 289 290 294 297 300 295 290 287 289 291 294 296 296 295 293 289 286 287 292 296 298 297 296 295 301 296 296
303 304 304 303 305 305 296 297 297 292 285 283 287 285 288 286 287 288 290 296 300 297 291 289 286 284 287 287 292 299 298 297 290 287 283 283 293 301 304 301 289 300 298 297
304 305 305 305 305 305 302 298 299 294 287 289 290 285 286 291 288 286 289 293 293 294 286 286 286 287 293 286 288 288 291 291 287 286 285 292 299 302 303 287 289 300 300 299
304 305 306 305 305 305 303 299 300 295 289 290 292 293 290 290 289 285 290 289 291 288 285 287 286 288 293 290 291 292 290 287 286 287 284 283 301 300 292 294 299 299 297 295
304 305 306 306 305 306 305 297 296 299 293 291 295 296 297 296 295 292 293 292 293 290 287 287 287 290 294 292 286 298 290 293 291 292 291 297 298 296 298 298 296 296 296 297
304 305 306 306 306 306 304 299 293 294 293 291 288 291 298 302 302 304 294 296 299 298 300 295 291 290 294 289 292 295 298 301 294 293 294 294 296 298 299 299 298 298 299 298
304 305 305 306 306 306 305 299 298 298 294 287 289 299 297 302 302 302 303 301 302 301 300 296 293 290 296 292 295 294 297 298 293 292 294 295 295 297 298 298 299 298 297 295
304 304 305 306 306 306 303 298 301 302 294 288 290 296 297 299 300 299 300 300 298 296 294 291 289 293 293 293 294 294 297 295 292 291 294 294 292 295 297 294 293 294 292 291
303 304 305 306 306 305 294 292 299 302 301 291 287 293 294 297 299 298 298 298 296 294 291 290 292 293 292 290 290 299 298 299 297 294 296 294 294 295 295 292 291 291 290 290
303 304 305 306 306 297 289 291 295 301 301 292 288 289 292 295 294 294 296 296 295 292 290 290 290 292 295 293 291 297 297 296 295 296 295 291 293 290 293 292 292 292 290 290
304 304 306 307 306 303 297 299 304 304 297 296 288 288 288 293 289 288 293 292 291 291 289 291 289 292 293 292 298 298 297 297 296 295 295 293 293 293 292 292 291 289 288 288
304 306 305 297 294 293 294 305 307 302 296 289 290 287 284 291 289 290 291 290 287 290 287 288 289 287 289 295 297 297 298 295 293 294 294 293 291 291 291 291 290 288 287 288
304 297 292 287 292 304 303 298 294 294 295 294 289 292 288 289 287 288 287 287 285 283 286 289 286 289 294 297 300 299 296 295 295 292 290 291 290 291 291 290 290 289 289 288
293 289 288 292 301 294 292 288 288 289 289 292 292 288 286 292 285 285 288 283 285 280 284 285 282 286 291 298 299 298 298 299 298 295 294 293 293 292 291 291 292 291 290 289
295 296 299 298 292 292 288 285 290 289 286 292 287 288 289 291 292 288 288 285 287 283 289 285 284 290 295 299 299 298 300 299 298 297 295 295 294 294 293 292 291 291 291 291
300 296 293 292 288 284 286 284 286 288 292 289 291 290 288 290 294 288 286 284 283 290 282 286 291 293 298 298 299 299 301 301 298 297 296 295 295 295 293 291 292 292 291 290
291 288 283 286 286 284 283 287 289 292 294 292 292 288 286 286 287 285 284 287 287 283 281 285 291 295 297 299 300 301 299 297 295 295 296 295 294 293 293 292 292 291 290 290
289 289 283 286 290 292 292 293 292 296 297 294 292 291 289 286 284 284 283 283 284 285 284 286 292 295 297 298 300 302 298 295 294 294 294 293 293 292 291 291 290 290 289 288
292 290 286 289 288 289 290 292 293 297 296 294 294 289 287 287 285 283 282 282 282 285 290 293 296 298 295 296 297 295 295 294 293 293 293 293 292 291 290 290 290 289 288 287
291 288 291 288 287 289 291 289 293 298 294 290 289 286 285 288 284 285 289 285 286 293 292 294 296 297 298 299 296 294 294 293 292 292 292 290 290 290 289 287 287 287 288 287
Wind_Speed
23 23 24 24 26 27 11 5 6 5 7 4 3 5 13 9 13 11 15 14 15 4 4 5 4 6 7 9 8 6 8 7 2 10 15 13 6 10 13 5 4 1 5 3
23 23 22 23 24 24 8 9 5 6 3 6 6 8 17 13 9 17 8 5 8 2 2 6 6 5 5 8 8 5 2 2 6 4 5 1 11 5 5 5 4 6 7 3
22 23 22 22 23 23 6 3 5 5 4 3 8 16 10 13 14 15 17 14 12 4 3 4 7 9 1 8 3 9 5 4 3 6 4 7 17 16 10 7 5 6 4 12
23 22 21 22 22 22 3 3 3 3 6 11 14 14 12 16 12 5 11 2 8 12 5 8 4 4 5 5 6 7 6 4 8 7 10 12 13 15 18 9 7 8 11 17
22 22 20 20 21 18 3 2 4 3 7 10 13 11 5 16 16 8 9 9 14 12 6 7 14 9 5 3 8 6 6 4 14 11 16 15 5 5 10 9 7 6 17 3
23 22 21 22 20 10 3 2 3 4 6 5 10 6 16 22 22 9 17 20 13 11 12 9 14 9 12 11 7 2 1 2 8 4 17 13 3 2 4 4 4 15 10 7
22 22 22 22 20 13 2 3 3 3 8 7 11 19 19 21 22 16 20 17 10 6 17 17 11 13 14 13 12 5 3 8 1 10 16 5 5 8 7 16 7 14 15 10
23 22 22 21 20 18 3 2 2 3 8 9 16 16 21 20 19 15 18 17 15 16 10 3 1 1 3 7 11 11 11 4 6 5 4 7 13 7 8 14 5 8 17 16
24 24 22 21 20 19 1 3 3 4 5 3 14 19 17 13 10 10 10 12 11 7 3 3 3 3 3 3 2 12 8 1 4 4 6 3 4 10 5 3 5 10 19 21
25 25 23 22 21 20 8 4 5 3 5 9 6 11 11 6 6 7 10 9 6 5 3 2 2 2 1 1 1 1 2 4 7 4 4 3 3 3 7 3 8 15 13 14
25 26 24 22 20 20 9 5 3 2 4 13 12 13 15 14 8 4 11 8 2 3 4 4 3 2 2 3 2 1 3 5 3 4 4 3 5 4 4 5 12 16 17 18
25 25 26 23 19 18 13 3 1 3 5 11 14 19 20 18 19 9 4 5 10 3 3 2 3 3 3 1 3 3 5 3 4 4 3 6 6 8 10 14 21 13 23 20
25 25 25 22 18 15 10 3 3 2 4 8 3 7 7 8 10 6 5 4 3 5 9 2 3 3 4 3 4 2 7 3 6 3 9 12 16 19 18 16 21 19 20 21
24 23 25 21 17 14 12 2 2 3 3 4 8 5 12 15 9 8 10 11 6 6 3 1 2 3 4 4 3 4 4 4 7 13 11 19 16 17 21 21 22 24 20 19
24 25 24 20 17 14 7 3 3 2 2 4 8 16 6 8 7 14 10 4 5 3 5 3 3 1 5 3 3 6 5 3 2 5 5 15 8 12 17 22 19 20 24 17
25 25 24 20 14 9 3 3 2 1 1 3 6 5 8 10 14 10 9 5 2 1 1 3 4 3 3 4 3 10 6 10 5 7 13 18 15 17 17 22 18 18 18 17
26 25 23 17 9 2 2 3 3 3 1 2 5 6 6 6 6 5 5 5 3 3 3 5 4 6 5 3 4 7 12 17 17 18 23 15 8 13 16 21 19 21 17 15
25 24 19 9 4 2 3 2 3 4 1 2 3 5 6 5 5 5 4 5 4 6 3 4 4 4 4 6 7 11 16 17 13 13 15 19 16 17 17 17 17 18 15 14
26 20 3 4 3 1 4 8 9 1 1 2 2 3 4 4 3 3 5 3 5 4 4 4 4 4 6 2 6 12 9 9 16 16 17 16 18 16 14 16 15 17 13 12
18 5 3 3 2 10 7 1 1 1 2 2 3 1 4 2 3 4 4 3 2 3 4 3 5 3 3 5 3 8 14 17 20 20 13 14 13 13 12 13 11 13 12 12
5 4 3 4 10 3 1 2 2 1 2 3 4 3 3 2 2 3 0 2 2 4 5 4 2 3 4 4 6 7 8 9 8 11 13 12 16 14 13 12 11 12 12 12
5 6 5 2 2 1 2 3 1 1 2 3 1 4 3 4 0 3 4 2 2 1 2 3 2 4 6 1 7 6 6 9 13 13 15 13 14 13 13 12 12 11 12 12
2 2 2 2 2 3 4 5 2 3 3 3 3 4 1 4 2 1 3 4 2 1 5 2 2 4 6 3 6 6 5 8 13 13 14 14 14 13 13 12 11 12 11 10
2 2 4 1 2 1 3 2 3 4 4 4 2 3 1 2 5 2 3 3 1 3 3 2 3 6 8 4 3 10 10 11 13 15 15 16 15 13 12 11 11 11 10 9
2 1 2 1 2 3 3 3 3 4 3 3 3 2 2 2 2 2 3 5 3 3 2 2 4 8 4 2 6 11 9 10 12 13 14 14 14 13 11 9 8 9 10 9
2 3 2 2 2 3 3 2 3 2 3 2 1 2 3 2 2 3 3 3 1 2 1 4 3 1 4 4 5 10 11 10 10 11 13 12 12 12 10 8 8 8 10 10
3 3 3 2 3 4 3 2 3 3 3 2 2 3 1 2 2 2 2 1 1 1 1 3 4 2 3 6 10 12 13 11 10 12 11 10 10 11 11 10 4 7 7 7
Wind_Direction
336 339 341 341 340 341 348 338 323 303 353 26 319 323 308 289 279 291 294 250 268 279 286 257 235 252 244 175 168 161 152 179 234 195 212 202 150 195 215 180 197 139 143 253
336 336 338 341 340 343 332 327 282 302 37 18 330 317 314 294 312 313 296 250 253 313 290 301 226 267 248 164 168 141 213 239 132 119 60 186 215 164 138 109 108 185 135 219
334 334 339 340 340 338 345 297 307 323 15 16 320 319 318 323 326 307 328 301 279 280 272 241 292 301 243 189 126 124 127 279 231 184 118 117 171 208 179 139 128 165 189 141
339 340 341 338 342 342 45 343 327 318 316 323 311 315 298 317 329 306 311 332 352 313 280 307 271 313 266 185 205 151 157 239 251 274 149 147 154 180 204 189 190 167 173 158
339 338 335 336 340 349 46 331 320 297 283 280 313 309 322 317 325 305 304 307 333 313 274 268 292 292 283 285 217 183 188 250 196 224 159 139 114 39 201 194 162 127 145 105
332 333 334 335 334 11 306 286 264 267 286 291 308 317 317 315 317 295 305 310 313 288 281 296 293 278 278 273 285 253 318 212 179 123 143 110 130 235 186 177 134 139 148 175
329 331 331 330 332 344 224 284 279 286 291 302 298 304 314 311 313 296 299 303 301 275 297 279 253 247 256 254 250 230 231 233 124 122 127 161 164 239 190 112 95 105 98 95
328 326 325 325 326 328 183 260 271 276 291 303 295 319 314 309 313 305 295 294 297 305 296 254 69 163 217 235 227 180 222 249 92 119 89 101 119 166 156 131 65 121 115 113
327 327 325 324 322 327 307 232 207 272 290 272 323 305 302 300 315 307 289 300 298 355 284 302 228 183 168 205 300 160 238 22 118 94 100 124 178 210 145 137 102 149 131 138
326 326 328 323 323 327 320 257 199 241 270 277 293 305 300 309 303 272 294 330 315 48 326 290 207 117 100 170 145 311 60 44 70 80 87 57 107 249 148 146 206 159 138 136
325 324 326 324 320 323 328 275 215 218 264 284 263 270 284 288 284 274 302 311 29 299 330 337 348 333 60 53 173 335 73 86 48 54 86 88 358 66 184 190 105 120 106 106
322 323 324 324 324 319 329 267 201 190 234 268 285 273 264 256 258 273 269 267 303 283 311 322 298 328 9 178 59 347 61 96 106 46 56 351 27 104 81 104 110 120 109 115
322 323 323 321 318 321 324 274 278 256 268 285 313 271 275 261 245 208 284 271 285 289 298 247 246 7 329 30 21 67 52 57 95 89 27 65 75 80 85 95 104 107 107 114
321 325 323 325 320 320 312 266 255 242 261 285 284 280 299 295 291 270 231 271 296 265 295 309 347 1 353 23 32 42 21 40 83 92 100 77 58 78 98 94 96 98 89 100
323 322 319 320 322 318 309 236 231 206 333 302 293 310 266 284 298 312 308 268 283 312 332 7 35 14 4 360 51 30 354 129 73 115 75 103 83 92 97 96 99 100 106 95
322 319 318 316 312 332 360 320 226 264 279 290 301 292 303 314 331 329 332 336 352 22 5 331 355 9 70 53 46 15 63 75 84 107 88 92 90 87 91 99 100 99 99 102
319 315 315 308 297 135 195 225 236 287 248 265 289 303 288 316 320 329 332 345 348 33 343 16 350 359 29 37 46 31 85 93 97 107 109 75 57 103 95 94 95 92 89 90
318 316 309 296 296 228 273 270 288 259 262 254 289 283 328 2 324 331 357 345 357 16 338 351 22 341 23 44 64 93 99 92 75 74 78 105 108 99 96 100 102 96 99 103
320 316 328 50 44 326 256 284 306 137 176 307 296 298 299 354 309 289 325 18 18 314 27 1 28 333 43 100 123 115 110 100 113 98 101 103 103 107 107 108 107 108 109 107
323 8 31 348 260 302 319 30 313 271 186 235 258 300 282 40 348 306 340 12 36 36 292 340 54 5 335 27 118 107 117 124 123 115 114 115 115 120 118 115 115 117 120 119
8 359 332 261 305 350 337 287 207 202 263 212 241 204 284 310 2 280 198 283 334 56 281 93 356 359 323 7 91 105 115 118 92 112 122 127 132 130 123 120 122 124 123 124
271 291 286 285 320 267 324 271 271 182 260 286 274 264 218 292 312 4 334 343 348 44 295 75 59 299 324 36 101 103 119 121 121 128 127 130 126 128 128 130 126 120 123 125
276 233 255 241 255 13 352 349 31 312 332 311 315 317 322 335 41 319 345 4 318 311 39 54 64 316 351 358 111 95 105 104 109 121 123 122 118 121 123 121 114 120 123 122
287 337 311 229 335 31 212 238 264 274 277 310 302 303 53 322 4 343 353 285 40 58 37 357 320 335 340 20 102 101 94 106 108 115 120 120 118 117 114 116 122 123 123 129
265 229 271 284 321 275 267 264 288 258 275 327 333 293 87 298 9 19 352 1 35 28 334 277 283 303 318 92 120 117 108 125 117 124 121 121 121 118 115 117 117 117 117 118
239 238 273 286 318 317 332 306 283 288 303 315 26 358 9 352 340 356 360 326 347 301 229 259 285 65 103 104 103 116 122 116 120 119 118 117 120 124 123 117 124 126 125 124
218 251 210 208 229 244 244 250 263 293 343 337 13 348 349 338 352 350 2 295 246 337 337 340 348 28 106 135 109 105 107 107 116 114 112 112 113 118 121 119 119 116 121 127